Location: Fornova de Taro
(44.7000°N, 10.1000°E)
Time: 21:26:47
(UTC+00:00)

USA 308 - Pass Details

Date: 26 May 2022
Orbit: 549 x 558 km, 54.0° (Epoch: 14 June)

Event Time Altitude Azimuth Distance (km) Brightness Sun altitude
Exits shadow 00:40:53 59° 260° (W) 647 2.9 -21.5°
Maximum altitude 00:41:35 76° 326° (NW) 578 2.9 -21.4°
Drops below altitude 10° 00:45:46 10° 53° (NE) 1,836 6.3 -21.1°
Sets 00:48:03 0° 55° (NE) 2,750 7.3 -21.0°
